TimeEDT,TemperatureF,Dew PointF,Humidity,Sea Level PressureIn,VisibilityMPH,Wind Direction,Wind SpeedMPH,Gust SpeedMPH,PrecipitationIn,Events,Conditions,WindDirDegrees,DateUTC
12:48 AM,71.6,71.6,100,30.31,2.0,Calm,Calm,-,N/A,,Clear,0,2013-07-15 04:48:00
12:53 AM,72.0,71.1,97,30.31,4.0,Calm,Calm,-,N/A,,Clear,0,2013-07-15 04:53:00
1:05 AM,71.6,69.8,94,30.31,1.8,Calm,Calm,-,N/A,,Clear,0,2013-07-15 05:05:00
1:16 AM,71.6,69.8,94,30.30,0.8,Calm,Calm,-,N/A,,Clear,0,2013-07-15 05:16:00
1:25 AM,71.6,69.8,94,30.30,1.0,Calm,Calm,-,N/A,,Clear,0,2013-07-15 05:25:00
1:42 AM,71.6,69.8,94,30.30,0.8,Calm,Calm,-,N/A,,Mist,0,2013-07-15 05:42:00
1:53 AM,72.0,70.0,93,30.30,2.0,Calm,Calm,-,N/A,,Partly Cloudy,0,2013-07-15 05:53:00
2:04 AM,71.6,69.8,94,30.30,1.2,Calm,Calm,-,N/A,,Partly Cloudy,0,2013-07-15 06:04:00
2:13 AM,71.6,69.8,94,30.30,3.0,Calm,Calm,-,N/A,,Clear,0,2013-07-15 06:13:00
2:28 AM,71.6,69.8,94,30.30,1.5,Calm,Calm,-,N/A,,Clear,0,2013-07-15 06:28:00
2:32 AM,71.6,69.8,94,30.30,0.8,Calm,Calm,-,N/A,,Mist,0,2013-07-15 06:32:00
2:43 AM,69.8,69.8,100,30.30,1.0,Calm,Calm,-,N/A,,Clear,0,2013-07-15 06:43:00
2:53 AM,70.0,69.1,97,30.30,1.8,NNE,3.5,-,N/A,,Partly Cloudy,20,2013-07-15 06:53:00
3:01 AM,71.6,69.8,94,30.30,0.8,Calm,Calm,-,N/A,,Mist,0,2013-07-15 07:01:00
3:07 AM,69.8,69.8,100,30.30,1.2,Calm,Calm,-,N/A,,Partly Cloudy,0,2013-07-15 07:07:00
3:15 AM,69.8,69.8,100,30.30,0.8,Calm,Calm,-,N/A,,Mist,0,2013-07-15 07:15:00
3:25 AM,71.6,69.8,94,30.30,1.0,Calm,Calm,-,N/A,,Mist,0,2013-07-15 07:25:00
3:33 AM,71.6,69.8,94,30.30,2.5,Calm,Calm,-,N/A,,Partly Cloudy,0,2013-07-15 07:33:00
3:40 AM,71.6,69.8,94,30.30,4.0,Calm,Calm,-,N/A,,Partly Cloudy,0,2013-07-15 07:40:00
3:53 AM,69.1,69.1,100,30.30,1.5,Calm,Calm,-,N/A,,Scattered Clouds,0,2013-07-15 07:53:00
4:01 AM,71.6,69.8,94,30.30,2.0,Calm,Calm,-,N/A,,Mostly Cloudy,0,2013-07-15 08:01:00
4:09 AM,71.6,69.8,94,30.30,7.0,Calm,Calm,-,N/A,,Mostly Cloudy,0,2013-07-15 08:09:00
4:26 AM,71.6,69.8,94,30.30,9.0,Calm,Calm,-,N/A,,Scattered Clouds,0,2013-07-15 08:26:00
4:46 AM,71.6,69.8,94,30.30,1.5,Calm,Calm,-,N/A,,Clear,0,2013-07-15 08:46:00
4:53 AM,70.0,69.1,97,30.30,1.0,Calm,Calm,-,N/A,,Clear,0,2013-07-15 08:53:00
5:03 AM,71.6,69.8,94,30.30,0.8,Calm,Calm,-,N/A,,Mist,0,2013-07-15 09:03:00
5:17 AM,69.8,69.8,100,30.30,0.2,Calm,Calm,-,N/A,Fog,Fog,0,2013-07-15 09:17:00
5:25 AM,71.6,69.8,94,30.30,0.2,Calm,Calm,-,N/A,Fog,Fog,0,2013-07-15 09:25:00
5:42 AM,71.6,69.8,94,30.30,0.5,Calm,Calm,-,N/A,Fog,Fog,0,2013-07-15 09:42:00
5:53 AM,70.0,69.1,97,30.30,0.5,Calm,Calm,-,N/A,Fog,Fog,0,2013-07-15 09:53:00
5:57 AM,69.8,69.8,100,30.30,0.2,Calm,Calm,-,N/A,Fog,Fog,0,2013-07-15 09:57:00
6:39 AM,71.6,69.8,94,30.31,0.2,NNE,3.5,-,N/A,Fog,Fog,20,2013-07-15 10:39:00
6:51 AM,71.6,71.6,100,30.31,1.0,Calm,Calm,-,N/A,,Mist,0,2013-07-15 10:51:00
6:53 AM,72.0,71.1,97,30.31,1.5,Calm,Calm,-,N/A,,Scattered Clouds,0,2013-07-15 10:53:00
6:56 AM,71.6,71.6,100,30.31,3.0,NNE,3.5,-,N/A,,Scattered Clouds,20,2013-07-15 10:56:00
7:53 AM,75.0,73.9,96,30.32,8.0,Calm,Calm,-,N/A,,Clear,0,2013-07-15 11:53:00
8:06 AM,75.2,73.4,94,30.32,9.0,East,3.5,-,N/A,,Partly Cloudy,90,2013-07-15 12:06:00
8:23 AM,75.2,73.4,94,30.32,9.0,Calm,Calm,-,N/A,,Mostly Cloudy,0,2013-07-15 12:23:00
8:53 AM,78.1,73.9,87,30.32,9.0,Calm,Calm,-,N/A,,Overcast,0,2013-07-15 12:53:00
9:41 AM,80.6,73.4,79,30.33,10.0,Calm,Calm,-,N/A,,Mostly Cloudy,0,2013-07-15 13:41:00
9:53 AM,81.0,73.9,79,30.32,10.0,NNE,3.5,-,N/A,,Mostly Cloudy,30,2013-07-15 13:53:00
10:23 AM,82.4,73.4,74,30.33,10.0,NNE,3.5,-,N/A,,Mostly Cloudy,20,2013-07-15 14:23:00
10:44 AM,82.4,71.6,70,30.33,10.0,Calm,Calm,-,N/A,,Scattered Clouds,0,2013-07-15 14:44:00
10:53 AM,82.9,73.0,72,30.33,10.0,Calm,Calm,-,N/A,,Scattered Clouds,0,2013-07-15 14:53:00
11:53 AM,84.9,72.0,65,30.32,10.0,Calm,Calm,-,N/A,,Clear,0,2013-07-15 15:53:00
12:53 PM,87.1,70.0,57,30.31,10.0,Calm,Calm,-,N/A,,Scattered Clouds,0,2013-07-15 16:53:00
1:53 PM,89.1,69.1,52,30.30,10.0,Variable,3.5,-,N/A,,Partly Cloudy,0,2013-07-15 17:53:00
2:53 PM,88.0,68.0,51,30.28,10.0,Calm,Calm,-,N/A,,Scattered Clouds,0,2013-07-15 18:53:00
3:53 PM,90.0,69.1,50,30.27,10.0,Variable,3.5,-,N/A,,Scattered Clouds,0,2013-07-15 19:53:00
4:53 PM,89.1,70.0,53,30.26,10.0,Calm,Calm,-,N/A,,Scattered Clouds,0,2013-07-15 20:53:00
5:53 PM,89.1,70.0,53,30.26,10.0,Calm,Calm,-,N/A,,Clear,0,2013-07-15 21:53:00
6:53 PM,87.1,72.0,61,30.25,10.0,Calm,Calm,-,N/A,,Clear,0,2013-07-15 22:53:00
7:53 PM,84.0,73.0,69,30.25,10.0,Calm,Calm,-,N/A,,Clear,0,2013-07-15 23:53:00
8:53 PM,78.1,73.9,87,30.25,10.0,Calm,Calm,-,N/A,,Clear,0,2013-07-16 00:53:00
9:53 PM,75.0,73.0,94,30.26,10.0,Calm,Calm,-,N/A,,Clear,0,2013-07-16 01:53:00
10:53 PM,73.9,72.0,93,30.26,8.0,Calm,Calm,-,N/A,,Clear,0,2013-07-16 02:53:00
11:48 PM,73.4,71.6,94,30.26,1.2,Calm,Calm,-,N/A,,Clear,0,2013-07-16 03:48:00
11:53 PM,72.0,71.1,97,30.26,1.0,Calm,Calm,-,N/A,,Clear,0,2013-07-16 03:53:00
11:59 PM,71.6,71.6,100,30.26,4.0,Calm,Calm,-,N/A,,Clear,0,2013-07-16 03:59:00